Flag for U.S.A. Weather past 2 weeks in Madison, Wisconsin, U.S.A.

Now
26 °F

Light snow. Overcast.


Feels Like: 26 °F
Forecast: 19 / 30 °F
Wind: No wind

Location: Dane County Regional-Truax Field

Current Time: Dec 19, 2014 at 2:46:17 PM

Latest Report: Dec 19, 2014 at 1:53 PM


Visibility: 7 mi

Pressure: 30.30 "Hg

Humidity: 77%

Dew point: 20 °F

Location of MadisonLocation

Historic Weather in Madison — Graph

°F

Madison temperature yesterday

Maximum temperature yesterday: 27 °F (at 12:53 PM)
Minimum temperature yesterday: 15 °F (at 5:00 AM)
Average temperature yesterday: 23 °F

Past Weeks' High & Low Weather Summary

 TemperatureHumidityPressure
High46 °F (Dec 14, 12:53 PM)100% (Dec 14, 5:00 PM)30.72 "Hg (Dec 14, 5:00 PM)
Low15 °F (Dec 18, 5:00 AM)46% (Dec 7, 12:53 PM)29.65 "Hg (Dec 16, 12:53 AM)
Average31 °F84%30.22 "Hg
* Reported Dec 4 1:53 PM — Dec 19 1:02 PM, Madison, Weather by CustomWeather, © 2014

Note: Actual official high and low records may vary slightly from our data, if they occured in-between our weather recording intervals... More about our weather records

Advertising

Madison weather history for previous 24 hours

 ConditionsComfort  
Time TempWeatherWind HumidityBarometerVisibility
1:02 PM
Dec 19
26 °FOvercast.No wind77%30.27 "Hg8 mi
12:53 PM26 °FOvercast.No wind77%30.31 "Hg8 mi
11:53 AM26 °FOvercast.No wind74%30.33 "Hg9 mi
10:53 AM26 °FOvercast.6 mph77%30.34 "Hg10 mi
9:53 AM25 °FOvercast.3 mph81%30.34 "Hg10 mi
8:53 AM25 °FOvercast.3 mph81%30.34 "Hg10 mi
7:53 AM25 °FOvercast.5 mph78%30.33 "Hg10 mi
6:53 AM25 °FOvercast.5 mph81%30.33 "Hg10 mi
5:53 AM26 °FOvercast.3 mph77%30.31 "Hg8 mi
4:53 AM26 °FOvercast.No wind77%30.31 "Hg8 mi
3:53 AM26 °FOvercast.No wind77%30.31 "Hg10 mi
2:53 AM26 °FOvercast.5 mph77%30.31 "Hg10 mi
1:53 AM26 °FOvercast.No wind77%30.31 "Hg10 mi
12:53 AM26 °FOvercast.No wind77%30.30 "Hg10 mi
11:53 PM
Dec 18
27 °FOvercast.3 mph75%30.30 "Hg10 mi
10:53 PM26 °FOvercast.No wind77%30.30 "Hg10 mi
9:53 PM27 °FOvercast.3 mph78%30.29 "Hg10 mi
8:53 PM26 °FOvercast.No wind84%30.29 "Hg10 mi
7:53 PM26 °FLight snow. Overcast.5 mph84%30.29 "Hg9 mi
6:53 PM27 °FOvercast.5 mph81%30.29 "Hg10 mi
5:53 PM27 °FLight snow. Overcast.3 mph78%30.29 "Hg9 mi
4:53 PM26 °FLight snow. Mostly cloudy.3 mph81%30.29 "Hg9 mi
3:53 PM27 °FOvercast.5 mph78%30.27 "Hg10 mi
2:53 PM27 °FOvercast.6 mph78%30.27 "Hg10 mi
Weather by CustomWeather, © 2014

See weather overviewHow to use our weather pages